Portland, OR

11:24 AM PDT on September 27, 2016 (GMT -0700)
Portland International

Weather History for KPDX - January, 2014

Change the Weather History Date:

Friday, January 10, 2014

  Actual Average Record
Temperature  
Mean Temperature 53 °F 41 °F  
Max Temperature 57 °F 46 °F 57 °F (1945)
Min Temperature 48 °F 36 °F 16 °F (1949)
Degree Days  
Heating Degree Days 12 24  
Month to date heating degree days 239 246  
Since 1 July heating degree days 2130 1978  
Cooling Degree Days 0 0  
Month to date cooling degree days 0 0  
Year to date cooling degree days 0 0  
Moisture  
Dew Point 43 °F    
Average Humidity 69    
Maximum Humidity 83    
Minimum Humidity 55    
Precipitation  
Precipitation 0.01 in 0.17 in 1.35 in (1979)
Month to date precipitation 1.03 1.70  
Year to date precipitation 1.03 1.70  
Sea Level Pressure  
Sea Level Pressure 30.06 in    
Wind  
Wind Speed 12 mph (South)    
Max Wind Speed 22 mph    
Max Gust Speed 34 mph    
Visibility 9 miles    
Events Rain    
T = Trace of Precipitation, MM = Missing Value Source: NWS Daily Summary

Daily Weather History Graph

Daily Weather History Graph

Search for Another Location

Airport or City:

Trip Planner

Search our weather history database for the weather conditions in past years. The results will help you decide how hot, cold, wet, or windy it might be!

Date:

Astronomy

Jan. 10, 2014 Rise Set
Actual Time 7:49 AM PST 4:47 PM PST
Civil Twilight 7:15 AM PST 5:20 PM PST
Nautical Twilight 6:38 AM PST 5:57 PM PST
Astronomical Twilight 6:02 AM PST 6:33 PM PST
Moon 12:58 PM PST (1/10) 2:57 AM PST (1/10)
Length of Visible Light 10h 04m
Length of Day
8h 57m
Waxing Gibbous, 76% of the Moon is Illuminated
Jan 10
Waxing Gibbous
Jan 15
Full
Jan 23
Last Quarter
Jan 30
New
Feb 6
First Quarter

Hourly Weather History & Observations

Time (PST) Temp. Dew Point Humidity Pressure Visibility Wind Dir Wind Speed Gust Speed Precip Events Conditions
12:53 AM 50.0 °F 43.0 °F 77% 30.08 in 9.0 mi SSW 18.4 mph 23.0 mph N/A   Overcast
1:53 AM 50.0 °F 43.0 °F 77% 30.09 in 9.0 mi SSW 15.0 mph 29.9 mph N/A   Overcast
2:53 AM 50.0 °F 43.0 °F 77% 30.13 in 10.0 mi SSW 17.3 mph - N/A   Overcast
3:53 AM 50.0 °F 43.0 °F 77% 30.14 in 9.0 mi SSW 16.1 mph - N/A   Overcast
4:53 AM 50.0 °F 43.0 °F 77% 30.16 in 10.0 mi SSW 12.7 mph - N/A   Overcast
5:53 AM 48.9 °F 43.0 °F 80% 30.16 in 9.0 mi South 13.8 mph - N/A   Overcast
6:53 AM 48.9 °F 43.0 °F 80% 30.17 in 9.0 mi SSW 12.7 mph - N/A   Overcast
7:53 AM 48.9 °F 43.0 °F 80% 30.17 in 7.0 mi SSW 6.9 mph - 0.00 in Rain Light Rain
8:53 AM 48.9 °F 44.1 °F 83% 30.18 in 9.0 mi Calm Calm - 0.00 in   Overcast
9:53 AM 48.9 °F 43.0 °F 80% 30.18 in 7.0 mi SSW 15.0 mph - N/A   Overcast
10:53 AM 51.1 °F 43.0 °F 74% 30.18 in 10.0 mi SSW 3.5 mph - N/A   Mostly Cloudy
11:53 AM 51.1 °F 44.1 °F 77% 30.15 in 9.0 mi SSW 9.2 mph - N/A   Mostly Cloudy
12:53 PM 52.0 °F 44.1 °F 74% 30.12 in 8.0 mi South 5.8 mph - N/A   Overcast
1:53 PM 52.0 °F 46.0 °F 80% 30.08 in 9.0 mi South 9.2 mph - N/A   Overcast
2:40 PM 52.0 °F 45.0 °F 77% 30.05 in 10.0 mi South 12.7 mph - N/A   Overcast
2:53 PM 52.0 °F 45.0 °F 77% 30.05 in 10.0 mi South 11.5 mph - 0.00 in Rain Light Rain
3:53 PM 52.0 °F 45.0 °F 77% 30.03 in 10.0 mi South 10.4 mph - 0.01 in Rain Light Rain
4:53 PM 52.0 °F 45.0 °F 77% 30.01 in 10.0 mi SSW 12.7 mph - 0.00 in   Overcast
5:53 PM 52.0 °F 45.0 °F 77% 29.98 in 10.0 mi South 15.0 mph 19.6 mph N/A   Overcast
6:53 PM 53.1 °F 44.1 °F 71% 29.96 in 10.0 mi South 12.7 mph - N/A   Overcast
7:53 PM 53.1 °F 43.0 °F 69% 29.93 in 10.0 mi South 12.7 mph - N/A   Overcast
8:53 PM 54.0 °F 41.0 °F 62% 29.91 in 10.0 mi SSE 13.8 mph 20.7 mph N/A   Overcast
9:53 PM 52.0 °F 41.0 °F 66% 29.87 in 10.0 mi SE 5.8 mph - N/A   Overcast
10:53 PM 55.9 °F 39.0 °F 53% 29.83 in 10.0 mi South 15.0 mph 24.2 mph N/A   Overcast
11:53 PM 57.0 °F 39.0 °F 51% 29.79 in 10.0 mi South 16.1 mph 29.9 mph N/A   Overcast